Location: Taupo
(38.6830°S, 176.0830°E)
Time: 11:18:20
(UTC+13:00)

ISS - Visible Passes

Search period start: 22 October 2019 00:00
Search period end: 01 November 2019 00:00
Orbit: 411 x 421 km, 51.6° (Epoch: 21 October)

Date Brightness Start Highest point End Pass type
(mag) Time Alt. Az. Time Alt. Az. Time Alt. Az.
22 Oct -3.1 20:09:46 10° WNW 20:13:06 58° SW 20:16:29 10° SE visible
22 Oct -0.7 21:48:31 10° SW 21:50:25 14° SSW 21:52:20 10° SSE visible
23 Oct -0.9 20:59:09 10° WSW 21:01:36 18° SSW 21:04:04 10° SSE visible
24 Oct -1.4 20:09:58 10° W 20:12:50 25° SSW 20:15:43 10° SSE visible
24 Oct -0.5 21:50:01 10° SSW 21:50:32 10° S 21:51:02 10° S visible
25 Oct -0.7 21:00:15 10° SW 21:01:36 12° SSW 21:02:59 10° S visible
25 Oct -0.4 22:39:12 10° S 22:39:23 10° S 22:39:23 10° S visible
26 Oct -0.9 20:10:43 10° SW 20:12:44 15° SSW 20:14:44 10° SSE visible
27 Oct -0.6 22:37:48 10° SSW 22:38:46 13° S 22:38:46 13° S visible
28 Oct -0.6 20:12:05 10° SSW 20:12:43 10° S 20:13:23 10° S visible
28 Oct -0.8 21:49:34 10° S 21:50:45 11° SSE 21:51:56 10° SSE visible
29 Oct -0.9 22:36:43 10° SSW 22:38:00 17° S 22:38:00 17° S visible
30 Oct -1.4 21:48:19 10° SSW 21:50:39 17° SSE 21:51:10 16° SSE visible
31 Oct -1.1 21:00:00 10° SSW 21:01:44 13° SSE 21:03:29 10° SE visible
31 Oct -1.2 22:35:46 10° SW 22:37:13 22° SSW 22:37:13 22° SSW visible
